Вернуться в каталог

HAWK-9B

АктивенНаукаVLEO
NORAD 59450·PAYLOAD·🇺🇸 United States

Запущен Apr 7, 2024 с Cape Canaveral Space Force Station

Loading…

Ближайшие Пролёты (ближайшие 24 часа)

TLE

СвежийSource: Space-Track

Эпоха: Sep 14, 2026, 05:22 UTC

1 59450U 24066J   26257.22362689  .00001161  00000-0  11219-3 0  9997
2 59450  45.6093 177.8854 0002492 144.8976 215.2070 14.99367766133190

Отслеживайте HAWK-9B в реальном времени с AllMySat

Download on the App Store